[[{"header":{"parameterUnit":"m.s-1","parameterCategory":1,"la1":30.2991,"la2":30.254,"lo1":-89.0895,"lo2":-89.0444,"dx":0.0017,"dy":0.0017,"nx":28,"ny":28,"refTime":"2022-12-09T15:00:00:Z","depth":0,"parameterNumber":2,"parameterNumberName":"U-component_of_WINDS"},"data":[0,0,0,0,0,0,0,0,0,0,0,0,0,0,0,0,0,0,0,0,0,0,0,0,0,0,0,0,0,0,0,0,0,0,0,0,0,0,0,0,0,0,0,0,0,0,0,0,0,0,0,0,0,0,0,0,0,0,-1.0664,-1.0664,0,-1.0617,-1.0616,-1.0616,-1.056,-1.0559,-1.0558,-1.0557,-1.0508,-1.0508,-1.0507,0,0,0,0,0,0,0,0,0,0,0,0,0,-1.0707,-1.0707,-1.0664,-1.0663,-1.0663,-1.0617,-1.0616,-1.0615,-1.056,-1.0559,-1.0558,-1.0557,-1.0508,-1.0508,-1.0507,0,0,0,0,0,0,0,0,0,0,0,0,0,-1.0677,-1.0707,-1.0664,-1.063,-1.0626,-1.0617,-1.0616,-1.0615,-1.056,-1.0559,-1.0558,-1.0557,-1.0509,-1.0508,-1.0507,-1.0528,0,0,-1.0505,-1.0504,0,0,0,0,0,0,0,0,-1.0679,-1.0676,-1.0635,-1.0632,-1.0628,-1.0593,-1.0613,-1.0586,-1.0561,-1.0585,-1.0557,-1.0556,-1.0537,-1.0534,-1.0528,-1.0525,-1.0523,-1.0505,-1.0504,-1.0504,-1.0504,0,0,0,0,0,0,0,-1.0681,-1.0677,-1.0645,-1.0635,-1.063,-1.0617,-1.0611,-1.0608,-1.0569,-1.0583,-1.0579,-1.0574,-1.0535,-1.0529,-1.0527,-1.0523,-1.0505,-1.0504,-1.0504,-1.0503,-1.0537,-1.0538,0,0,0,0,0,0,-1.0688,-1.068,-1.0647,-1.0644,-1.0651,-1.0617,-1.0611,-1.0605,-1.0569,-1.0562,-1.0575,-1.0572,-1.0531,-1.0527,-1.0525,-1.0547,-1.0504,-1.0503,-1.0503,-1.0535,-1.0537,-1.0539,0,0,0,0,0,0,-1.069,-1.0686,-1.0649,-1.0661,-1.0655,-1.0618,-1.0612,-1.0605,-1.0599,-1.0563,-1.0556,-1.0576,-1.053,-1.0526,-1.0528,-1.0545,-1.0503,-1.0502,-1.0534,-1.0536,-1.0538,-1.0592,0,0,0,0,0,0,-1.0691,-1.0687,-1.0694,-1.0661,-1.0654,-1.0652,-1.0613,-1.0605,-1.0598,-1.0593,-1.0562,-1.0555,-1.0528,-1.0529,-1.0527,-1.0543,-1.0501,-1.0532,-1.0535,-1.0537,-1.0589,-1.0596,-1.0602,0,0,0,0,0,-1.0693,-1.071,-1.0694,-1.0691,-1.0662,-1.0653,-1.065,-1.0618,-1.0599,-1.0606,-1.0584,-1.0556,-1.0544,-1.053,-1.0527,-1.0543,-1.0531,-1.0534,-1.0537,-1.0586,-1.0594,-1.0602,0,0,0,0,0,0,-1.0745,-1.0705,-1.0687,-1.0694,-1.0678,-1.0644,-1.0652,-1.0628,-1.0616,-1.0612,-1.0574,-1.0568,-1.0575,-1.0559,-1.0545,-1.0562,-1.0533,-1.0536,-1.0572,-1.058,-1.0586,-1.0589,-1.0501,0,0,0,0,0,-1.0757,-1.0753,-1.0719,-1.0729,-1.0722,-1.0689,-1.0684,-1.0661,-1.0642,-1.0635,-1.0612,-1.0595,-1.0587,-1.0583,-1.0573,-1.0587,-1.058,-1.0597,-1.0603,-1.0609,-1.0611,-1.0619,-1.0626,-1.0549,-1.0549,-1.0549,0,0,-1.0782,-1.0761,-1.076,-1.0739,-1.0723,-1.0721,-1.0683,-1.0681,-1.0679,-1.0634,-1.0635,-1.0619,-1.0597,-1.0606,-1.0608,-1.0593,-1.0632,-1.0613,-1.0618,-1.0617,-1.0623,-1.063,-1.0637,-1.0551,-1.055,-1.055,0,0,-1.0827,-1.081,-1.0817,-1.0803,-1.078,-1.0759,-1.0761,-1.0731,-1.0719,-1.0719,-1.0686,-1.0684,-1.0671,-1.0657,-1.0649,-1.0692,-1.0667,-1.069,-1.0724,-1.0732,-1.0738,-1.0743,-1.0759,-1.0765,-1.0693,-1.0693,-1.0693,0,-1.0861,-1.0855,-1.0823,-1.0824,-1.0816,-1.0778,-1.0785,-1.0773,-1.0749,-1.0744,-1.0728,-1.0713,-1.0695,-1.0701,-1.0712,-1.0706,-1.0707,-1.0692,-1.074,-1.0745,-1.0749,-1.0764,-1.077,-1.0696,-1.0696,-1.0695,-1.0695,0,-1.0898,-1.0895,-1.0904,-1.0882,-1.0876,-1.088,-1.0849,-1.0847,-1.0826,-1.0807,-1.0809,-1.0788,-1.0774,-1.0774,-1.0753,-1.0777,-1.0769,-1.0747,-1.0717,-1.076,-1.0773,-1.0778,-1.07,-1.0699,-1.0698,-1.0698,0,0,-1.0971,-1.0935,-1.0938,-1.0929,-1.0903,-1.09,-1.0904,-1.0891,-1.089,-1.0876,-1.0878,-1.0869,-1.085,-1.084,-1.0818,-1.0825,-1.0862,-1.0802,-1.0801,-1.0814,-1.0888,-1.0904,-1.0911,-1.0846,-1.0847,-1.0848,-1.089,0,-1.101,-1.1014,-1.0987,-1.0997,-1.0995,-1.096,-1.0963,-1.0948,-1.0931,-1.0927,-1.0908,-1.0903,-1.0877,-1.0871,-1.0877,-1.0856,-1.0876,-1.0853,-1.0848,-1.0848,-1.0853,-1.0918,-1.0934,-1.0975,-1.0895,-1.0896,-1.0896,0,-1.1056,-1.1045,-1.1056,-1.1032,-1.103,-1.1033,-1.1021,-1.1017,-1.1,-1.0988,-1.0979,-1.0954,-1.0957,-1.093,-1.0934,-1.0919,-1.0915,-1.0906,-1.0906,-1.0904,-1.0874,-1.0917,-1.0987,-1.0993,-1.0904,-1.0904,-1.0903,0,-1.1108,-1.1096,-1.1102,-1.1095,-1.1067,-1.107,-1.1059,-1.1041,-1.1036,-1.1026,-1.1022,-1.1012,-1.1007,-1.1,-1.0974,-1.0957,-1.0981,-1.0952,-1.0971,-1.0972,-1.0976,-1.0976,-1.1047,-1.0976,-1.0975,-1.0975,-1.0975,0,-1.1154,-1.1162,-1.1125,-1.1128,-1.1137,-1.1107,-1.1117,-1.1102,-1.1087,-1.1087,-1.1057,-1.1058,-1.1024,-1.1022,-1.1001,-1.1008,-1.1006,-1.0996,-1.099,-1.0998,-1.0999,-1.0994,-1.099,-1.0977,-1.0977,-1.0976,-1.0976,0,-1.1212,-1.1188,-1.1192,-1.1166,-1.116,-1.1167,-1.1145,-1.1148,-1.113,-1.1131,-1.113,-1.1102,-1.1098,-1.1072,-1.1062,-1.1048,-1.1062,-1.1051,-1.1068,-1.1064,-1.1084,-1.1083,-1.1153,-1.1162,-1.1086,-1.1087,-1.1088,0,-1.1242,-1.1248,-1.1224,-1.1222,-1.1212,-1.121,-1.1206,-1.1177,-1.1174,-1.1157,-1.1162,-1.1156,-1.1149,-1.1145,-1.1124,-1.1116,-1.1105,-1.113,-1.1103,-1.1111,-1.1105,-1.1105,-1.1105,-1.1135,-1.1136,-1.1137,-1.1138,0,-1.1299,-1.1287,-1.1282,-1.1274,-1.127,-1.1261,-1.1251,-1.1252,-1.1221,-1.1219,-1.1215,-1.121,-1.1201,-1.1196,-1.1185,-1.1174,-1.1151,-1.1147,-1.1151,-1.1158,-1.1168,-1.1163,-1.1083,-1.1145,-1.1144,-1.1144,-1.1143,-1.1143,-1.1343,-1.1347,-1.1332,-1.1328,-1.1318,-1.131,-1.1312,-1.1295,-1.1291,-1.1282,-1.1266,-1.1265,-1.125,-1.1234,-1.1225,-1.1224,-1.1211,-1.1216,-1.1218,-1.1219,-1.1224,-1.1169,-1.1222,-1.1222,-1.1222,-1.1222,-1.1222,0,-1.1398,-1.1387,-1.1384,-1.1372,-1.1369,-1.135,-1.1338,-1.1337,-1.1337,-1.1326,-1.1321,-1.1317,-1.1313,-1.1293,-1.1286,-1.129,-1.1279,-1.1289,-1.1288,-1.1286,-1.1236,-1.1233,-1.1297,-1.1297,-1.1297,-1.1297,-1.1297,-1.1297,-1.1426,-1.1432,-1.142,-1.1422,-1.1411,-1.141,-1.1405,-1.1398,-1.1389,-1.1387,-1.1384,-1.1371,-1.1357,-1.135,-1.1345,-1.1339,-1.1338,-1.1351,-1.1342,-1.1296,-1.1289,-1.1282,-1.1279,-1.1352,-1.1352,-1.1392,-1.1392,-1.1392]},{"header":{"parameterUnit":"m.s-1","parameterCategory":1,"la1":30.2991,"la2":30.254,"lo1":-89.0895,"lo2":-89.0444,"dx":0.0017,"dy":0.0017,"nx":28,"ny":28,"refTime":"2022-12-09T15:00:00:Z","depth":0,"parameterNumber":3,"parameterNumberName":"V-component_of_WINDS"},"data":[0,0,0,0,0,0,0,0,0,0,0,0,0,0,0,0,0,0,0,0,0,0,0,0,0,0,0,0,0,0,0,0,0,0,0,0,0,0,0,0,0,0,0,0,0,0,0,0,0,0,0,0,0,0,0,0,0,0,0.8748,0.8748,0,0.8774,0.8774,0.8774,0.8811,0.8812,0.8813,0.8813,0.8837,0.8837,0.8837,0,0,0,0,0,0,0,0,0,0,0,0,0,0.8729,0.8729,0.8748,0.8748,0.8749,0.8774,0.8774,0.8774,0.8811,0.8812,0.8813,0.8813,0.8837,0.8837,0.8837,0,0,0,0,0,0,0,0,0,0,0,0,0,0.8744,0.873,0.8748,0.877,0.8772,0.8774,0.8774,0.8774,0.8811,0.8812,0.8813,0.8814,0.8837,0.8837,0.8837,0.8817,0,0,0.8837,0.8837,0,0,0,0,0,0,0,0,0.8743,0.8745,0.8767,0.8769,0.8771,0.879,0.8776,0.8789,0.8811,0.8796,0.8813,0.8814,0.882,0.8822,0.8824,0.8818,0.8819,0.8837,0.8837,0.8837,0.8837,0,0,0,0,0,0,0,0.8742,0.8744,0.8758,0.8767,0.877,0.8778,0.8781,0.8779,0.8802,0.8798,0.88,0.8803,0.8822,0.8824,0.8825,0.882,0.8837,0.8837,0.8837,0.8837,0.88,0.8799,0,0,0,0,0,0,0.8738,0.8743,0.8757,0.8759,0.876,0.8778,0.8781,0.8783,0.8803,0.8806,0.8802,0.8805,0.8824,0.8825,0.8826,0.8805,0.8837,0.8837,0.8837,0.8801,0.88,0.8799,0,0,0,0,0,0,0.8738,0.8739,0.8756,0.8752,0.8755,0.8777,0.8779,0.8783,0.8786,0.8806,0.881,0.88,0.8824,0.8826,0.882,0.8806,0.8837,0.8837,0.8802,0.8801,0.8799,0.8763,0,0,0,0,0,0,0.8737,0.8739,0.8732,0.8751,0.8755,0.875,0.8778,0.8783,0.8786,0.8789,0.8806,0.8809,0.8825,0.8819,0.882,0.8807,0.8837,0.8804,0.8802,0.88,0.8765,0.876,0.8756,0,0,0,0,0,0.8736,0.872,0.8732,0.8733,0.8747,0.8749,0.8751,0.8771,0.8785,0.8778,0.8791,0.8809,0.8808,0.8818,0.8819,0.8806,0.8805,0.8802,0.88,0.8767,0.8761,0.8756,0,0,0,0,0,0,0.8697,0.8723,0.8736,0.8725,0.8735,0.8755,0.8747,0.8763,0.8768,0.8771,0.8795,0.8798,0.8789,0.8797,0.8808,0.8789,0.8809,0.8807,0.8784,0.8778,0.8773,0.8771,0.8837,0,0,0,0,0,0.8688,0.8688,0.871,0.8699,0.8703,0.8724,0.8726,0.874,0.8751,0.8755,0.8767,0.8776,0.8778,0.8779,0.8781,0.8767,0.8771,0.8758,0.8754,0.875,0.8747,0.874,0.8735,0.8792,0.8792,0.8792,0,0,0.8667,0.8681,0.868,0.8691,0.87,0.8699,0.8727,0.8725,0.8725,0.8754,0.8749,0.8759,0.877,0.876,0.8756,0.8766,0.8733,0.8747,0.8744,0.8743,0.8738,0.8732,0.8727,0.879,0.879,0.8791,0,0,0.863,0.864,0.8632,0.8641,0.8655,0.867,0.8668,0.8686,0.8694,0.869,0.8712,0.8712,0.8714,0.8722,0.8726,0.8693,0.8709,0.8693,0.8668,0.8661,0.8656,0.8653,0.8641,0.8636,0.869,0.869,0.869,0,0.8602,0.8603,0.8626,0.8623,0.8627,0.8655,0.8647,0.8654,0.8668,0.867,0.8682,0.8687,0.8696,0.8688,0.868,0.8683,0.8681,0.869,0.8655,0.8652,0.8649,0.8637,0.8633,0.8688,0.8688,0.8689,0.8689,0,0.8568,0.8568,0.856,0.8574,0.8578,0.8572,0.8594,0.8594,0.8609,0.8622,0.8618,0.863,0.8637,0.8636,0.865,0.863,0.8636,0.8651,0.8672,0.8641,0.8631,0.8626,0.8685,0.8686,0.8687,0.8687,0,0,0.8505,0.8533,0.853,0.8537,0.8555,0.8555,0.8551,0.8558,0.8558,0.8567,0.8564,0.8566,0.8581,0.8585,0.86,0.8594,0.8567,0.8611,0.8611,0.8602,0.8546,0.8534,0.8529,0.8579,0.8578,0.8577,0.8545,0,0.8471,0.8466,0.8487,0.8476,0.8477,0.8504,0.8501,0.8511,0.8523,0.8525,0.8539,0.854,0.8559,0.8563,0.8558,0.8571,0.8556,0.8574,0.8575,0.8575,0.8571,0.8523,0.851,0.8479,0.8541,0.8541,0.854,0,0.843,0.8438,0.8427,0.8447,0.8448,0.8444,0.8453,0.8454,0.8467,0.8476,0.8482,0.85,0.8497,0.8517,0.8513,0.8525,0.8527,0.8533,0.8533,0.8533,0.8555,0.8522,0.847,0.8465,0.8534,0.8535,0.8535,0,0.8385,0.8393,0.8388,0.8393,0.8415,0.8412,0.8421,0.8435,0.8438,0.8446,0.8448,0.8455,0.8458,0.8463,0.8482,0.8495,0.8475,0.8497,0.8482,0.8482,0.8476,0.8476,0.8423,0.8478,0.8478,0.8478,0.8478,0,0.8343,0.8336,0.8368,0.8364,0.8357,0.8382,0.8373,0.8385,0.8397,0.8396,0.842,0.8419,0.8445,0.8446,0.8461,0.8455,0.8456,0.8464,0.8467,0.8461,0.846,0.8462,0.8464,0.8477,0.8477,0.8478,0.8478,0,0.8291,0.8312,0.8309,0.8331,0.8337,0.833,0.8349,0.8347,0.8362,0.836,0.8361,0.8384,0.8387,0.8407,0.8414,0.8424,0.8412,0.8421,0.8408,0.8411,0.8395,0.8396,0.8341,0.8335,0.8394,0.8393,0.8393,0,0.8263,0.8258,0.8281,0.8283,0.8291,0.8293,0.8297,0.8322,0.8325,0.8339,0.8335,0.834,0.8346,0.8349,0.8365,0.8371,0.838,0.836,0.838,0.8374,0.8379,0.8379,0.8378,0.8355,0.8354,0.8354,0.8353,0,0.8211,0.8222,0.8228,0.8237,0.8241,0.8249,0.8258,0.8258,0.8285,0.8287,0.8291,0.8296,0.8304,0.8308,0.8317,0.8326,0.8344,0.8347,0.8344,0.8337,0.833,0.8333,0.8396,0.8348,0.8348,0.8349,0.8349,0.8349,0.817,0.8167,0.8183,0.8188,0.8198,0.8207,0.8206,0.8221,0.8225,0.8234,0.8249,0.8251,0.8264,0.8278,0.8285,0.8287,0.8297,0.8293,0.8291,0.829,0.8286,0.833,0.8289,0.8289,0.8289,0.8289,0.8289,0,0.8119,0.8131,0.8136,0.8149,0.8153,0.8171,0.8183,0.8185,0.8186,0.8198,0.8203,0.8208,0.8213,0.8231,0.8237,0.8235,0.8243,0.8236,0.8236,0.8238,0.8277,0.8279,0.8229,0.8229,0.8229,0.8229,0.8229,0.8229,0.8093,0.8089,0.8102,0.8104,0.8116,0.8119,0.8124,0.8132,0.8141,0.8146,0.8151,0.8163,0.8177,0.8185,0.819,0.8195,0.8196,0.8186,0.8193,0.8229,0.8235,0.824,0.8242,0.8186,0.8186,0.8154,0.8154,0.8154]}]]